Weather History for Wellsville, NY

Change the Weather History Date:

Tuesday, February 12, 2013

  Actual Average (KBFD) Record (KBFD)
Temperature  
Mean Temperature 28 °F 23 °F  
Max Temperature 30 °F 32 °F 56 °F (1965)
Min Temperature 26 °F 14 °F -19 °F (1979)
Degree Days  
Heating Degree Days 37 36  
Month to date heating degree days 445  
Since 1 July heating degree days 4856  
Cooling Degree Days 0 0  
Month to date cooling degree days 0  
Year to date cooling degree days 0  
Moisture  
Dew Point 20 °F    
Average Humidity 72    
Maximum Humidity 78    
Minimum Humidity 69    
Precipitation  
Precipitation 0.00 in 0.08 in 0.36 in (2009)
Month to date precipitation 1.01  
Year to date precipitation 4.30  
Sea Level Pressure  
Sea Level Pressure 29.91 in    
Wind  
Wind Speed 16 mph (West)    
Max Wind Speed 24 mph    
Max Gust Speed 36 mph    
Visibility 10 miles    
Events Snow    
T = Trace of Precipitation, MM = Missing Value Source: NWS Daily Summary

Daily Weather History Graph

Daily Weather History Graph

Search for Another Location

Airport:

Trip Planner

Search our weather history database for the weather conditions in past years. The results will help you decide how hot, cold, wet, or windy it might be!

Date:

Astronomy

Feb. 12, 2013 Rise Set
Actual Time 7:11 AM EST 5:41 PM EST
Civil Twilight 6:42 AM EST 6:10 PM EST
Nautical Twilight 6:10 AM EST 6:42 PM EST
Astronomical Twilight 5:37 AM EST 7:15 PM EST
Moon 8:04 AM EST (2/12) 8:44 PM EST (2/12)
Length of Visible Light 11h 27m
Length of Day
10h 29m
Waxing Crescent, 7% of the Moon is Illuminated
Feb 12
Waxing Crescent
Feb 17
First Quarter
Feb 25
Full
Mar 4
Last Quarter
Mar 11
New

Hourly Weather History & Observations

Time (EST) Temp. Windchill Dew Point Humidity Pressure Visibility Wind Dir Wind Speed Gust Speed Precip Events Conditions
12:56 AM 30.0 °F 19.5 °F 23.0 °F 75% 29.77 in 6.0 mi West 13.8 mph 23.0 mph 0.00 in Snow Light Snow
1:56 AM 30.9 °F 17.5 °F 21.9 °F 69% 29.78 in 10.0 mi West 24.2 mph 33.4 mph 0.00 in   Overcast
2:56 AM 30.0 °F 16.3 °F 21.0 °F 69% 29.80 in 10.0 mi West 24.2 mph 35.7 mph 0.00 in   Overcast
3:56 AM 28.9 °F 14.8 °F 21.0 °F 72% 29.82 in 10.0 mi West 24.2 mph 35.7 mph N/A   Overcast
4:56 AM 28.9 °F 18.6 °F 21.0 °F 72% 29.84 in 10.0 mi West 12.7 mph 29.9 mph N/A   Overcast
5:56 AM 28.9 °F 16.9 °F 21.0 °F 72% 29.87 in 10.0 mi West 17.3 mph 32.2 mph N/A   Overcast
7:56 AM 28.0 °F 15.3 °F 21.0 °F 75% 29.91 in 10.0 mi West 18.4 mph 27.6 mph 0.00 in   Overcast
8:56 AM 28.0 °F 14.9 °F 19.9 °F 72% 29.93 in 10.0 mi West 19.6 mph 29.9 mph 0.00 in   Overcast
9:56 AM 28.0 °F 18.1 °F 19.0 °F 69% 29.96 in 10.0 mi West 11.5 mph 23.0 mph 0.00 in   Overcast
10:37 AM 28.4 °F 17.0 °F 19.4 °F 69% 29.88 in 8.0 mi West 15.0 mph 26.5 mph 0.00 in Snow Light Snow
10:48 AM 28.4 °F 15.4 °F 19.4 °F 69% 29.88 in 7.0 mi West 19.6 mph 25.3 mph 0.00 in Snow Light Snow
10:56 AM 28.9 °F 16.9 °F 19.9 °F 69% 29.95 in 7.0 mi West 17.3 mph 26.5 mph 0.00 in Snow Light Snow
11:56 AM 28.9 °F 18.2 °F 19.9 °F 69% 29.96 in 9.0 mi West 13.8 mph 25.3 mph 0.00 in Snow Light Snow
12:56 PM 28.9 °F 16.9 °F 19.9 °F 69% 29.96 in 10.0 mi West 17.3 mph 27.6 mph 0.00 in   Overcast
1:56 PM 28.0 °F 16.5 °F 19.9 °F 72% 29.94 in 10.0 mi West 15.0 mph - N/A   Overcast
2:56 PM 28.0 °F 16.5 °F 19.9 °F 72% 29.93 in 10.0 mi West 15.0 mph 24.2 mph N/A   Overcast
3:56 PM 28.0 °F 16.1 °F 19.9 °F 72% 29.91 in 10.0 mi WNW 16.1 mph 23.0 mph N/A   Overcast
4:23 PM 26.6 °F 15.2 °F 19.4 °F 74% 29.86 in 10.0 mi WNW 13.8 mph - N/A   Overcast
4:56 PM 27.0 °F 15.2 °F 21.0 °F 78% 29.94 in 10.0 mi WNW 15.0 mph 20.7 mph 0.00 in   Overcast
5:56 PM 27.0 °F 15.6 °F 19.9 °F 75% 29.97 in 10.0 mi WNW 13.8 mph 23.0 mph N/A   Overcast
6:56 PM 27.0 °F 18.0 °F 19.9 °F 75% 29.99 in 10.0 mi West 9.2 mph - N/A   Overcast
7:03 PM 26.6 °F 16.8 °F 19.4 °F 74% 29.91 in 10.0 mi West 10.4 mph - N/A   Overcast
7:56 PM 27.0 °F 18.0 °F 21.0 °F 78% 29.98 in 10.0 mi West 9.2 mph - N/A   Overcast
8:39 PM 26.6 °F 16.8 °F 19.4 °F 74% 29.88 in 10.0 mi WNW 10.4 mph - N/A   Overcast
8:56 PM 27.0 °F 16.7 °F 19.9 °F 75% 29.96 in 10.0 mi WNW 11.5 mph - N/A   Overcast
9:56 PM 27.0 °F 19.5 °F 19.9 °F 75% 29.94 in 10.0 mi WNW 6.9 mph - N/A   Overcast
10:56 PM 27.0 °F 19.5 °F 19.0 °F 72% 29.93 in 10.0 mi NW 6.9 mph - N/A   Overcast
11:56 PM 27.0 °F 20.5 °F 19.0 °F 72% 29.94 in 10.0 mi WNW 5.8 mph - N/A   Overcast